SCP
0 0 0 0 0 0 0 0 0 0 0 0 0 0 0 0 0 0 0 0 0 0 0 0 0 0 0 0 0 -0 -0 0 0 0 0 0 0 0 0 0 0 0 0
0 0 0 0 0 0 0 0 0 0 0 0 0 0 0 0 0 0 0 0 0 0 0 0 0 0 0 0 0 -0 -0 0 0 0 0 0 0 0 0 0 0 0 0
0 0 0 0 0 0 0 0 0 0 0 0 0 0 0 0 0 0 0 0 0 0 0 0 0 -0 -0 0 0 -0 -0 0 0 0 0 0 0 0 0 0 0 0 0
0 0 0 0 0 0 0 0 0 0 0 0 0 0 0 -0 -0 -0 -0 0 0 0 0 0 0 0 0 -0 -0 -0 -0 0 0 0 0 0 0 0 0 0 0 0 0
0 0 0 0 0 0 0 0 0 0 0 0 0 0 -0 0 0 0 0 -0 0 0 0 0 0 0 0 -0 -0 -0 0 0 0 0 0 0 0 0 0 0 0 0 0
0 0 0 0 0 0 0 0 0 0 0 0 0 0 -0 0 0 0 0 -0 0 0 0 0 0 0 0 -0 -0 0 0 0 0 0 0 0 0 0 0 0 0 0 0
0 0 0 0 0 0 0 0 0 0 0 0 0 0 -0 0 0 0 0 0 0 0 0 0 0 0 0 -0 0 0 0 0 0 0 0 0 0 0 0 0 0 0 0
0 0 0 0 0 0 0 0 0 0 0 0 0 0 0 0 0 0 -0 0 0 0 0 0 0 0 0 0 -0 0 0 0 0 0 0 0 0 0 0 0 0 0 0
0 0 0 0 0 0 0 0 0 0 0 0 0 0 0 0 0 0 -0 0 0 0 0 0 0 0 0 0 0 0 0 0 0 0 0 0 0 0 0 0 0 0 0
0 0 0 0 0 0 0 0 0 0 0 0 0 0 0 0 0 0 0 0 0 0 0 0 0 0 0 0 0 0 0 0 0 0 0 0 0 0 0 0 0 0 0
0 0 0 0 0 0 0 0 0 0 0 0 0 0 0 0 0 0 0 0 0 0 0 0 0 0 0 0 0 0 0 0 0 0 0 0 0 0 0 0 0 0 0
0 0 0 0 0 0 0 0 0 0 0 0 0 0 0 0 0 0 0 0 0 0 0 0 0 0 0 0 0 0 0 0 0 0 0 0 0 0 0 0 0 0 0
0 0 0 0 0 0 0 0 0 0 0 0 0 0 0 0 0 0 0 0 0 0 0 0 0 0 0 0 0 0 0 0 0 0 0 0 0 0 0 0 0 0 0
0 0 0 0 0 0 0 0 0 0 0 0 0 0 0 0 0 0 0 0 0 0 0 0 0 0 0 0 0 0 0 0 0 0 0 0 0 0 0 0 0 0 0
0 0 0 0 0 0 0 0 0 0 0 0 0 0 0 0 0 0 0 0 0 0 0 0 0 0 0 0 0 0 0 0 0 0 0 0 0 0 0 0 0 0 0
0 0 0 0 0 0 0 0 0 0 0 0 0 0 0 0 0 0 0 0 0 0 0 0 0 0 0 0 0 0 0 0 0 0 0 0 0 0 0 0 0 0 0
0 0 0 0 0 0 0 0 0 0 0 0 0 0 0 0 0 0 0 0 0 0 0 0 0 0 0 0 0 0 0 0 0 0 0 0 0 0 0 0 0 0 0
0 0 0 0 0 0 0 0 0 0 0 0 0 0 0 0 0 0 0 0 0 0 0 0 0 0 0 0 0 0 0 0 0 0 0 0 0 0 0 0 0 0 0
0 0 0 0 0 0 0 0 0 0 0 0 0 0 0 0 0 0 0 0 0 0 0 0 0 0 0 0 0 0 0 0 0 0 0 0 0 0 0 0 0 0 0
0 0 0 0 0 0 0 0 0 0 0 0 0 0 0 0 0 0 0 0 0 0 0 0 0 0 0 0 0 0 0 0 0 0 0 0 0 0 0 0 0 0 0
0 0 0 0 0 0 0 0 0 0 0 0 0 0 0 0 0 0 0 0 0 0 0 0 0 0 0 0 0 0 0 0 0 0 0 0 0 0 0 0 0 0 0
0 0 0 0 0 0 0 0 0 0 0 0 0 0 0 0 0 0 0 0 0 0 0 0 0 0 0 0 0 0 0 0 0 0 0 0 0 0 0 0 0 0 0
0 0 0 0 0 0 0 0 0 0 0 0 0 0 0 0 0 0 0 0 0 0 0 0 0 0 0 0 0 0 0 0 0 0 0 0 0 0 0 0 0 0 0
0 0 0 0 0 0 0 0 0 0 0 0 0 0 0 0 0 0 0 0 0 0 0 0 0 0 0 0 0 0 0 0 0 0 0 0 0 0 0 0 0 0 0
0 0 0 0 0 0 0 0 0 0 0 0 0 0 0 0 0 0 0 0 0 0 0 0 0 0 0 0 0 0 0 0 0 0 0 0 0 0 0 0 0 0 0
0 0 0 0 0 0 0 0 0 0 0 0 0 0 0 0 0 0 0 0 0 0 0 0 0 0 0 0 0 0 0 0 0 0 0 0 0 0 0 0 0 0 0
Wind_Speed
7 7 8 8 9 9 9 10 11 11 13 14 16 17 18 17 13 9 8 8 8 8 8 8 9 8 6 6 6 6 6 6 9 9 7 8 10 10 10 9 9 8 7
6 7 8 9 9 9 10 11 11 12 12 13 15 16 16 16 13 10 9 8 7 8 8 7 7 6 7 6 6 6 5 6 8 12 10 9 10 9 9 10 9 7 5
6 7 8 8 9 10 10 11 11 11 12 13 14 15 16 14 11 10 10 10 10 10 10 10 9 8 7 6 7 5 5 7 7 9 11 10 8 7 7 8 8 6 5
6 7 8 8 9 9 10 11 11 11 11 12 13 14 14 13 8 7 9 10 10 11 11 11 11 10 9 7 8 7 7 8 7 7 9 9 7 6 4 4 4 3 3
6 7 8 8 9 9 10 10 10 11 12 12 13 14 14 12 6 5 8 9 9 10 11 11 12 17 20 13 11 9 9 7 7 6 7 8 7 5 4 4 3 3 2
6 7 8 9 9 9 10 10 10 10 11 11 11 13 14 13 19 21 13 8 8 9 10 11 12 12 19 18 21 19 17 12 9 6 6 8 8 8 7 6 5 3 1
6 6 7 8 9 9 10 10 10 9 10 11 11 11 13 17 23 21 21 9 8 8 9 10 12 14 18 6 13 17 15 19 17 9 7 7 8 9 9 8 7 5 3
6 6 7 7 8 9 9 9 9 7 8 7 9 11 11 17 24 19 19 8 6 8 9 10 11 12 15 12 9 10 8 8 12 9 6 7 8 9 7 7 8 7 6
5 6 6 6 7 7 8 9 7 7 6 7 8 9 11 15 24 20 15 5 6 8 9 11 14 11 22 23 13 12 11 8 13 17 16 14 15 15 11 6 6 4 3
5 6 6 6 6 7 7 7 6 7 7 9 10 9 10 11 21 23 15 5 7 8 8 11 18 20 23 23 13 12 13 10 10 11 11 12 9 10 13 5 4 4 4
5 5 6 6 6 6 6 5 7 8 9 8 9 9 8 11 17 22 20 5 6 9 9 9 11 24 23 23 19 12 17 14 10 9 8 7 6 5 5 5 4 3 3
5 5 6 6 6 6 6 7 7 7 8 8 7 8 7 9 13 16 19 17 13 8 8 8 11 23 22 22 17 20 23 17 9 9 8 9 9 9 8 7 6 5 6
5 5 6 7 6 6 6 7 7 6 6 7 6 7 8 8 10 17 15 17 18 8 7 16 19 22 19 15 21 24 18 11 10 10 10 9 8 9 8 7 6 5 5
5 5 5 6 6 6 6 5 6 7 7 7 6 7 8 8 8 6 3 5 10 8 6 11 16 18 15 16 16 14 11 11 11 9 10 9 9 8 8 8 7 7 4
5 5 5 5 6 6 6 5 7 6 9 10 6 6 8 9 12 17 10 6 4 5 5 5 6 7 9 9 9 10 10 10 11 10 10 10 10 10 9 9 7 7 5
4 4 4 4 5 5 6 8 12 12 16 17 16 15 11 15 21 18 16 14 14 14 7 4 5 6 7 8 9 9 9 10 10 10 10 10 10 10 10 9 8 8 7
5 5 4 4 4 5 6 7 9 11 14 15 18 20 19 20 20 19 17 15 13 11 4 3 4 4 5 5 6 6 7 8 8 8 9 9 10 10 10 10 10 8 8
4 6 5 3 4 4 5 6 6 8 9 8 12 19 21 20 19 19 18 12 7 6 2 3 3 4 4 4 4 4 5 7 7 8 8 9 10 10 10 11 10 11 9
4 3 4 3 3 3 4 5 5 7 8 8 8 11 16 17 18 18 16 6 6 6 5 4 3 3 3 3 3 3 4 5 6 6 7 8 8 9 10 10 10 15 11
3 6 5 3 3 3 4 4 5 6 7 7 8 9 9 8 8 10 9 7 7 6 6 5 4 4 3 3 3 3 3 4 5 5 6 6 7 7 9 10 10 9 9
3 3 6 3 3 3 3 3 4 5 6 7 7 10 16 8 8 9 9 9 9 8 8 6 5 4 3 3 3 3 3 2 3 3 4 5 6 6 6 7 8 9 9
3 2 2 2 3 3 3 3 4 4 5 6 6 8 15 8 7 8 8 9 9 8 8 7 6 5 4 4 4 3 3 3 2 1 2 3 4 5 5 6 7 7 8
4 3 2 2 2 4 4 3 4 4 5 6 6 7 7 8 8 9 9 9 9 9 8 8 7 6 5 4 5 5 5 4 3 3 1 1 2 3 4 5 6 7 8
4 4 3 2 2 2 3 3 4 4 5 5 5 6 6 7 8 9 9 9 10 9 9 9 8 10 10 7 5 6 6 6 5 4 5 3 1 2 3 3 5 6 7
5 4 4 3 2 2 3 3 3 4 5 6 6 6 7 7 8 9 9 9 11 11 12 11 9 10 13 12 8 6 11 14 12 7 5 4 4 2 2 3 3 4 5
6 5 4 4 3 3 3 3 3 4 4 5 5 6 6 7 8 8 9 9 10 11 11 10 12 15 16 11 10 10 11 14 15 16 9 6 6 4 3 2 3 3 4
Wind_Direction
319 323 326 323 323 323 321 319 318 317 320 322 324 326 328 330 329 322 310 293 286 286 288 290 293 296 301 303 297 292 291 292 291 294 287 287 282 281 287 287 283 277 273
319 325 325 323 323 323 322 321 321 322 324 327 330 332 336 341 344 346 341 338 328 324 324 320 318 326 325 322 318 312 309 299 297 299 297 292 282 277 275 276 277 269 257
324 327 324 323 324 323 322 322 325 326 327 332 336 338 340 341 353 7 9 8 4 360 357 353 342 336 341 338 333 332 316 312 305 300 300 294 285 274 275 274 267 257 256
332 327 325 323 324 322 323 325 328 330 333 336 337 337 339 336 343 14 16 13 8 5 4 359 347 347 348 343 344 346 329 319 313 313 309 304 293 280 272 273 274 242 241
331 332 328 325 323 325 328 329 333 338 340 335 337 339 340 338 345 46 27 10 3 360 357 353 344 355 353 2 355 356 345 332 329 331 328 328 327 334 337 331 298 272 243
329 327 325 329 330 332 331 335 338 338 335 335 337 338 341 340 4 32 38 12 0 357 351 347 341 344 350 0 358 359 356 347 344 343 336 334 332 335 338 339 330 309 298
326 324 326 326 331 333 336 337 336 331 331 333 332 336 338 335 1 31 30 20 359 353 349 347 344 343 345 339 352 355 350 352 349 348 330 328 325 332 334 337 337 330 326
324 323 321 324 325 327 332 333 327 321 326 325 323 331 335 338 353 27 31 17 355 347 343 342 338 334 330 4 355 343 340 346 342 340 332 325 331 329 332 328 311 299 281
322 319 316 316 319 324 330 326 319 319 318 322 323 327 332 332 344 10 34 3 3 346 345 348 344 337 344 5 3 346 344 352 349 349 354 354 355 350 358 350 330 312 291
310 309 308 312 318 315 318 315 314 316 320 330 328 325 322 321 336 353 24 16 7 357 349 346 343 355 358 2 5 351 350 357 346 341 344 346 344 344 4 360 326 316 307
301 306 310 314 312 309 316 311 316 322 326 320 319 319 313 322 333 339 358 23 17 1 354 345 341 359 4 3 6 360 359 3 346 340 340 340 340 341 340 330 303 282 284
304 309 311 310 311 321 317 309 312 314 315 311 309 315 318 316 325 329 348 1 14 12 353 341 351 6 8 6 7 8 6 3 352 351 353 353 351 348 340 326 304 278 254
308 309 308 308 307 308 304 302 308 307 307 307 309 317 318 317 318 327 341 355 2 15 360 0 6 10 9 4 7 11 7 359 357 357 356 352 343 334 333 334 329 319 289
299 301 304 306 307 310 309 305 304 303 304 302 309 315 313 311 309 311 305 334 357 7 7 358 5 6 11 8 7 6 2 1 3 355 351 346 344 348 355 355 351 350 345
291 293 302 307 305 308 311 303 305 296 315 335 325 313 318 316 322 345 357 353 350 5 16 360 356 357 2 2 2 4 3 2 2 355 356 355 357 0 2 0 1 5 11
286 296 297 300 307 312 312 317 325 333 336 342 343 343 329 330 341 352 354 359 358 4 19 351 352 355 357 358 358 357 359 2 359 357 359 359 0 2 3 4 10 13 12
266 281 285 300 307 313 317 322 325 329 335 342 346 345 347 353 0 359 0 2 357 4 14 333 330 334 339 345 346 347 349 349 350 354 360 0 1 5 8 9 12 13 12
264 282 293 289 294 303 310 315 321 327 329 331 338 343 350 358 1 3 7 3 347 350 320 305 307 311 318 328 337 340 340 346 354 357 359 2 3 6 9 11 13 18 16
257 268 274 280 293 301 307 312 321 327 328 329 330 336 348 357 358 0 4 356 333 327 317 301 289 291 297 309 320 329 336 343 352 354 359 360 2 6 9 10 12 19 26
250 284 303 314 318 316 312 316 325 331 332 333 335 329 335 355 351 349 350 343 340 330 319 307 295 280 279 287 301 318 334 344 353 357 355 356 358 5 8 9 12 15 21
232 276 305 322 312 305 302 314 320 325 329 331 330 329 349 358 345 341 342 343 341 337 330 318 303 289 271 260 262 281 303 322 343 351 354 355 357 2 4 10 13 17 23
209 229 256 277 291 296 308 322 318 316 319 324 326 334 349 352 339 339 339 337 334 331 328 321 309 291 270 250 238 238 250 267 287 335 355 359 1 1 4 14 18 21 26
195 214 239 260 281 307 329 320 313 313 316 319 325 338 342 341 339 337 336 334 331 330 329 326 318 305 283 252 228 217 219 223 212 188 165 29 19 14 11 14 19 24 31
188 203 216 235 263 285 298 303 308 313 316 315 324 333 335 333 330 330 330 328 328 327 326 326 321 314 307 292 244 219 215 209 188 180 173 152 109 50 34 27 23 24 30
187 196 203 210 231 263 285 297 306 312 317 321 327 331 330 328 328 327 326 325 326 326 325 325 322 322 319 312 288 238 225 220 205 177 164 156 146 126 89 59 46 40 42
186 192 196 199 210 230 254 277 295 306 310 315 321 320 318 320 321 321 322 325 328 327 325 324 322 323 322 318 306 290 250 224 211 191 163 156 153 152 141 108 91 73 63